• Join FlightAware (Why Join?)
  • Login
  • US Flag GB Flag 
09:33 EST


 

Airport Tracker/Info


-or-


 

Live Flight TrackerFlight Track Log ✈ UCA4838 ✈ 07-May-2013 ✈ KALB - KEWR

Flight Track Log - Related Links

Times and Time Zones

All times are in EDT time to prevent confusion due to time zone crossing. See the UCA4838 flight status page for this flight to view local times or setup timezone preferences in your user account.

Time Position Orientation Groundspeed Altitude Reporting Facility
EDT Latitude Longitude Course Direction KTS MPH feet Rate Location/Type
09:29 42.7319 -73.8081 186° South 126 145 1,000  Level Boston Center
09:29 42.6964 -73.8131 186° South 156 180 1,900 1,200 Climbing Boston Center
09:31 42.6606 -73.8461 214° Southwest 171 197 3,200 1,260 Climbing Boston Center
09:31 42.6225 -73.8792 213° Southwest 179 206 4,400 1,260 Climbing Boston Center
09:32 42.5742 -73.9175 210° Southwest 193 222 5,700 1,200 Climbing Boston Center
09:33 42.5278 -73.9531 209° Southwest 194 223 6,900 1,140 Climbing Boston Center
09:34 42.4794 -73.9911 210° Southwest 196 226 8,100 1,140 Climbing Boston Center
09:35 42.4331 -74.0294 211° Southwest 199 229 9,200 1,020 Climbing Boston Center
09:36 42.4183 -74.0375 202° Southwest 219 252 9,500 600 Climbing Boston Center
09:37 42.3742 -74.0728 211° Southwest 228 262 10,000 240 Climbing Boston Center
09:38 42.3172 -74.1164 210° Southwest 239 275 10,000  Level Boston Center
09:39 42.2497 -74.1706 211° Southwest 250 288 10,000  Level Boston Center
09:40 42.1928 -74.2139 209° Southwest 250 288 10,000 -60 Level Boston Center
09:41 42.1231 -74.2622 207° Southwest 255 293 9,900 -300 Descending Boston Center
09:42 42.0661 -74.3053 209° Southwest 261 300 9,400 -600 Descending Boston Center
09:43 41.9944 -74.3592 209° Southwest 271 312 8,700 -600 Descending Boston Center
09:44 41.9353 -74.3992 207° Southwest 271 312 8,200 -600 Descending Boston Center
09:45 41.8614 -74.4528 208° Southwest 271 312 7,500 -600 Descending Boston Center
09:46 41.7833 -74.5086 208° Southwest 271 312 7,000 -300 Descending Boston Center
09:47 41.7161 -74.5342 196° South 264 304 7,000  Level Boston Center
09:48 41.6472 -74.5486 189° South 254 292 7,000 -180 Level Boston Center
09:49 41.5781 -74.5603 187° South 254 292 6,700 -480 Descending Boston Center
09:50 41.5069 -74.5744 188° South 260 299 6,100 -360 Descending Boston Center
09:51 41.4358 -74.5889 189° South 260 299 6,000 -60 Descending Boston Center
09:52 41.3689 -74.6058 191° South 255 293 6,000  Level Boston Center
09:53 41.3000 -74.6333 197° South 244 281 6,000  Level New York TRACON
09:54 41.2333 -74.6667 201° Southwest 246 283 6,000  Level New York TRACON
09:55 41.1667 -74.7000 201° Southwest 245 282 6,000  Level New York TRACON
09:56 41.1000 -74.7000 180° South 235 270 6,000  Level New York TRACON
09:57 41.0500 -74.6833 166° South 234 269 6,000  Level New York TRACON
09:58 40.9833 -74.6667 169° South 234 269 6,000  Level New York TRACON
09:59 40.9167 -74.6333 159° South 233 268 6,000  Level New York TRACON
10:00 40.8667 -74.6167 166° South 230 265 6,000  Level New York TRACON
10:01 40.8000 -74.5833 159° South 230 265 6,000  Level New York TRACON
10:02 40.7333 -74.5500 159° South 234 269 6,000 -300 Level New York TRACON
10:03 40.6667 -74.5167 159° South 241 277 5,400 -660 Descending New York TRACON
10:04 40.6167 -74.5000 166° South 235 270 4,700 -780 Descending New York TRACON
10:05 40.5667 -74.4667 153° Southeast 214 246 4,000 -420 Descending New York TRACON
10:06 40.5000 -74.4333 159° South 191 220 3,900 -540 Descending New York TRACON
10:07 40.4667 -74.4000 143° Southeast 171 197 3,000 -480 Descending New York TRACON
10:08 40.4667 -74.3500 90° East 181 208 3,000  Level New York TRACON
10:09 40.5000 -74.3000 49° Northeast 176 203 3,000 -60 Level New York TRACON
10:10 40.5500 -74.2667 27° Northeast 183 211 2,900 -480 Descending New York TRACON
10:11 40.5833 -74.2333 37° Northeast 177 204 2,100 -900 Descending New York TRACON
10:12 40.6333 -74.2000 27° Northeast 153 176 1,100 -1,020 Descending New York TRACON